| time (UTC) | temp F | wind direction | speed knots | gust knots | rain 1hr in | rain 24hr in | rain mn in | humidity % | barometer mb |
| 20260504081519 | 45 | 255 | 0.0 | 0.0 | 0.00 | 0.00 | 0.00 | 87 | 1017.4 |
| 20260504044552 | 40 | 255 | 0.0 | 0.0 | 0.00 | 0.00 | 0.00 | 87 | 1017.7 |
| 20260504043019 | 40 | 255 | 0.0 | 0.0 | 0.00 | 0.00 | 0.00 | 85 | 1017.7 |
| 20260504041542 | 41 | 255 | 0.0 | 0.0 | 0.00 | 0.00 | 0.00 | 85 | 1017.7 |
| 20260504040008 | 41 | 255 | 0.0 | 0.0 | 0.00 | 0.00 | 0.00 | 84 | 1017.8 |
| 20260504034543 | 41 | 255 | 0.0 | 0.0 | 0.00 | 0.00 | 0.00 | 83 | 1017.8 |
| 20260504033005 | 42 | 255 | 0.0 | 0.0 | 0.00 | 0.00 | 0.00 | 82 | 1017.5 |
| 20260504031541 | 42 | 255 | 0.0 | 0.0 | 0.00 | 0.00 | 0.00 | 81 | 1017.3 |
| 20260504024529 | 43 | 255 | 0.0 | 0.0 | 0.00 | 0.00 | 0.00 | 78 | 1017.1 |
| 20260504023052 | 44 | 255 | 0.0 | 0.0 | 0.00 | 0.00 | 0.00 | 76 | 1017.0 |
| 20260504021519 | 45 | 255 | 0.0 | 0.0 | 0.00 | 0.00 | 0.00 | 74 | 1017.1 |
| 20260504020058 | 46 | 255 | 0.0 | 0.0 | 0.00 | 0.00 | 0.00 | 72 | 1017.1 |
| 20260504014519 | 47 | 255 | 0.0 | 0.0 | 0.00 | 0.00 | 0.00 | 69 | 1016.9 |
| 20260504013043 | 48 | 255 | 0.0 | 0.0 | 0.00 | 0.00 | 0.00 | 67 | 1016.9 |
| 20260504011504 | 49 | 255 | 0.0 | 0.0 | 0.00 | 0.00 | 0.00 | 62 | 1016.6 |
| 20260504010031 | 51 | 255 | 0.0 | 0.0 | 0.00 | 0.00 | 0.00 | 58 | 1016.6 |
| 20260504004503 | 52 | 255 | 0.0 | 0.0 | 0.00 | 0.00 | 0.00 | 53 | 1016.6 |
| 20260504003033 | 54 | 255 | 0.0 | 0.0 | 0.00 | 0.00 | 0.00 | 50 | 1016.4 |
| 20260504001602 | 56 | 255 | 0.0 | 0.0 | 0.00 | 0.00 | 0.00 | 45 | 1016.3 |
| 20260504000027 | 58 | 255 | 0.0 | 0.9 | 0.00 | 0.00 | 0.00 | 40 | 1016.2 |
| 20260503234624 | 59 | 252 | 0.0 | 0.0 | 0.00 | 0.00 | 0.00 | 37 | 1016.1 |
| 20260503233030 | 61 | 274 | 0.0 | 2.6 | 0.00 | 0.00 | 0.00 | 35 | 1016.0 |
| 20260503231549 | 63 | 264 | 0.0 | 2.6 | 0.00 | 0.00 | 0.00 | 34 | 1015.9 |
| 20260503230012 | 63 | 351 | 0.0 | 4.3 | 0.00 | 0.00 | 0.00 | 32 | 1015.8 |
| 20260503224538 | 64 | 264 | 0.9 | 4.3 | 0.00 | 0.00 | 0.00 | 32 | 1015.9 |
| 20260503223005 | 63 | 240 | 0.9 | 7.8 | 0.00 | 0.00 | 0.00 | 31 | 1015.9 |
| 20260503221536 | 63 | 1 | 0.9 | 8.7 | 0.00 | 0.00 | 0.00 | 33 | 1015.9 |
| 20260503214525 | 62 | 34 | 2.6 | 9.6 | 0.00 | 0.00 | 0.00 | 32 | 1016.1 |
| 20260503213052 | 63 | 267 | 0.9 | 9.6 | 0.00 | 0.00 | 0.00 | 32 | 1016.1 |
| 20260503211514 | 62 | 313 | 2.6 | 9.6 | 0.00 | 0.00 | 0.00 | 33 | 1015.8 |
| 20260503210040 | 63 | 269 | 1.7 | 6.1 | 0.00 | 0.00 | 0.00 | 33 | 1016.0 |
| 20260503204504 | 62 | 291 | 3.5 | 7.8 | 0.00 | 0.00 | 0.00 | 33 | 1016.2 |
| 20260503203026 | 60 | 245 | 1.7 | 12.2 | 0.00 | 0.00 | 0.00 | 34 | 1016.2 |
| 20260503201556 | 61 | 242 | 2.6 | 10.4 | 0.00 | 0.00 | 0.00 | 34 | 1016.4 |
| 20260503200021 | 61 | 290 | 2.6 | 7.8 | 0.00 | 0.00 | 0.00 | 35 | 1016.6 |
| 20260503194556 | 60 | 286 | 2.6 | 7.8 | 0.00 | 0.00 | 0.00 | 38 | 1016.7 |
| 20260503193014 | 59 | 308 | 0.9 | 8.7 | 0.00 | 0.00 | 0.00 | 39 | 1017.0 |
| 20260503191547 | 59 | 307 | 3.5 | 10.4 | 0.00 | 0.00 | 0.00 | 38 | 1017.1 |
| 20260503190006 | 59 | 297 | 4.3 | 11.3 | 0.00 | 0.00 | 0.00 | 38 | 1017.4 |
| 20260503184535 | 59 | 11 | 2.6 | 8.7 | 0.00 | 0.00 | 0.00 | 39 | 1017.4 |
| 20260503183001 | 58 | 248 | 6.1 | 13.9 | 0.00 | 0.00 | 0.00 | 38 | 1017.6 |
| 20260503181533 | 58 | 323 | 2.6 | 10.4 | 0.00 | 0.00 | 0.00 | 39 | 1017.8 |
| 20260503180107 | 57 | 288 | 5.2 | 13.0 | 0.00 | 0.00 | 0.00 | 39 | 1017.8 |
| 20260503174524 | 58 | 353 | 1.7 | 5.2 | 0.00 | 0.00 | 0.00 | 40 | 1017.9 |
| 20260503173046 | 55 | 328 | 4.3 | 11.3 | 0.00 | 0.00 | 0.00 | 41 | 1018.0 |
| 20260503171510 | 57 | 260 | 1.7 | 6.1 | 0.00 | 0.00 | 0.00 | 41 | 1018.2 |